PANCPAWD

Guest
Details From PANC - Ted Stevens Anchorage Intl
To PAWD - SEWARD
Flight Number -
Tags decoded
Created
Modified
Stats Distance 66 nm / 123 km
Max Altitude 0 ft / 0 m
Waypoints 4
Social Downloads 2
Likes 0
Share VATSIM

Download

Looking for another format? Having issues loading an existing format? Contact us
Advertisement - Login to hide

Notes

Requested: PANC HATUL V441 SEWAR PAWD Unmatched points: V441

Route

PANC HATUL SEWAR PAWD

ID Type Via Altitude Latitude Longitude Leg Dist Tot Dist Heading (true) Name
O PANC APT - 0 ft / 0 m 61.17411˚ -149.99598˚ - 0 nm - Ted Stevens Anchorage Intl
HATUL FIX - 0 ft / 0 m 60.97095˚ -149.89481˚ 12 nm 12 nm 166° / 167° -
SEWAR FIX - 0 ft / 0 m 60.26680˚ -149.66772˚ 42 nm 55 nm 171° / 171° -
O PAWD APT - 0 ft / 0 m 60.12984˚ -149.41952˚ 11 nm 66 nm 138° / 138° SEWARD

Altitude Profile

Advertisement - Login to hide

PANC

Details ICAO PANC (ANC)
Name Ted Stevens Anchorage Intl
Region USA (Alaska)
Timezone America/Anchorage (UTC-9.0)
Stats Elevation 152 ft / 46 m (AMSL)
Location 61.174111° -149.995982°
Runways 3
Magnetic Variation 16.220° E

METAR

PANC 161653Z 06003KT 10SM SCT060 BKN080 01/M02 A2915

Decode

TAF

PANC 161603Z 1616/1718 17008KT P6SM VCSH SCT050 BKN080 FM162100 17007KT P6SM VCSH SCT050 BKN080 FM170800 02004KT P6SM SCT080

Decode

Departure Runways

ID Width Length Bearing (true) Bearing (mag) Surface Threshold Offset Overrun Length
07L 151 ft / 46 m 10,563 ft / 3,220 m 89.88° 73.66° Asphalt 0 ft / 0 m 381 ft / 116 m
07R 151 ft / 46 m 10,862 ft / 3,311 m 89.85° 73.63° Asphalt 0 ft / 0 m 499 ft / 152 m
15 151 ft / 46 m 11,563 ft / 3,524 m 164.90° 148.68° Asphalt 200 ft / 61 m 220 ft / 67 m
25L 151 ft / 46 m 10,862 ft / 3,311 m 269.91° 253.69° Asphalt 0 ft / 0 m 151 ft / 46 m
25R 151 ft / 46 m 10,563 ft / 3,220 m 269.94° 253.72° Asphalt 0 ft / 0 m 381 ft / 116 m
33 151 ft / 46 m 11,563 ft / 3,524 m 344.91° 328.69° Asphalt 892 ft / 272 m 449 ft / 137 m

PAWD

Details ICAO PAWD
Name SEWARD
Region USA (Alaska)
Timezone America/Anchorage (UTC-9.0)
Stats Elevation 22 ft / 7 m (AMSL)
Location 60.129844° -149.419515°
Runways 2
Magnetic Variation 16.257° E

METAR

PAWD 161737Z AUTO 00000KT 1 1/4SM -SN BR OVC008 01/01 A2920 RMK AO2 P0001 T00060006 TSNO

Decode

TAF

Not found

Destination Runways

ID Width Length Bearing (true) Bearing (mag) Surface Threshold Offset Overrun Length
12 100 ft / 30 m 4,228 ft / 1,289 m 143.67° 127.41° Asphalt 0 ft / 0 m 0 ft / 0 m
15 75 ft / 23 m 2,280 ft / 695 m 170.13° 153.87° Asphalt 0 ft / 0 m 0 ft / 0 m
30 100 ft / 30 m 4,228 ft / 1,289 m 323.68° 307.42° Asphalt 0 ft / 0 m 0 ft / 0 m
33 75 ft / 23 m 2,280 ft / 695 m 350.13° 333.87° Asphalt 0 ft / 0 m 0 ft / 0 m

Popular Alternatives